This demonstration page uses our WeatherBlox Daily Observations layout. Learn more.

39.01783, -85.05884

Hourly Observations for November 9, 2018

Temp ( °F °C ) Dew Point ( °F °C ) Humidity (%) Winds ( mph kmh ) Pressure ( in mb ) Visibility ( mi km ) Precip ( " mm )
12:52 am 00:52 Cloudy with Light Rain 41 5 34 1.1 76 76 NNE 10 17 30.12 1020 7 11.265408 0.01 0.254
1:52 am 01:52 Cloudy with Light Rain 40 4.4 35 1.7 83 83 NNE 13 20 30.09 1019 7 11.265408 0.03 0.762
2:52 am 02:52 Cloudy with Rain 39 3.9 38 3.3 96 96 NNE 13 20 30.06 1018 3 4.828032 0.08 2.032
3:18 am 03:18 Cloudy with Light Rain 39 3.9 37 2.8 93 93 N 10 17 30.12 1020 4 6.437376 0.01 0.254
3:52 am 03:52 Cloudy with Light Rain 39 3.9 38 3.3 96 96 NNE 12 19 30.06 1018 3 4.828032 0.06 1.524
4:06 am 04:06 Cloudy with Light Rain 38 3.3 37 2.8 97 97 NNE 12 19 30.09 1019 4 6.437376 0.001 0.001
4:52 am 04:52 Cloudy with Light Drizzle 38 3.3 38 3.3 100 100 NNE 12 19 30.03 1017 5 8.04672 0.01 0.254
5:52 am 05:52 Cloudy with Mist and Fog 38 3.3 37 2.8 97 97 N 9 15 30.03 1017 6 9.656064 0.001 0.001
6:52 am 06:52 Cloudy with Light Rain 38 3.3 37 2.8 97 97 NNE 9 15 30 1016 4 6.437376 0.02 0.508
7:52 am 07:52 Cloudy with Light Rain 38 3.3 37 2.8 97 97 N 6 9 30 1016 2.5 4.02336 0.02 0.508
8:39 am 08:39 Cloudy with Mist and Fog 38 3.3 37 2.8 97 97 NNW 7 11 30.03 1017 3 4.828032 0.01 0.254
8:52 am 08:52 Cloudy with Mist and Fog 38 3.3 37 2.8 97 97 NNW 6 9 30 1016 3 4.828032 0.01 0.254
9:52 am 09:52 Cloudy with Mist and Fog 38 3.3 37 2.8 97 97 W 5 7 30 1016 4 6.437376 0 0
10:52 am 10:52 Cloudy with Mist and Fog 38 3.3 38 3.3 100 100 W 8 13 30 1016 3 4.828032 0 0
11:07 am 11:07 Cloudy with Mist and Fog 39 3.9 38 3.3 96 96 W 7 11 30.06 1018 4 6.437376 0 0
11:52 am 11:52 Cloudy with Mist and Fog 41 5 39 3.9 93 93 W 7 11 30 1016 5 8.04672 0 0
12:41 pm 12:41 Cloudy 43 6.1 39 3.9 86 86 W 13 20 30.06 1018 7 11.265408 0 0
12:52 pm 12:52 Cloudy 43 6.1 39 3.9 86 86 W 13 20 30 1016 8 12.874752 0 0
1:25 pm 13:25 Cloudy 44 6.7 38 3.3 79 79 W 15 24 30.06 1018 10 16.09344 0 0
1:52 pm 13:52 Cloudy 44 6.7 37 2.8 76 76 W 17 28 30 1016 10 16.09344 0 0
2:52 pm 14:52 Cloudy 44 6.7 36 2.2 73 73 W 17 28 30 1016 10 16.09344 0 0
3:52 pm 15:52 Cloudy 43 6.1 36 2.2 76 76 WSW 6 9 30.03 1017 10 16.09344 0 0
4:52 pm 16:52 Cloudy 41 5 35 1.7 79 79 WNW 17 28 30.06 1018 10 16.09344 0.001 0.001
5:52 pm 17:52 Cloudy 39 3.9 34 1.1 82 82 W 18 30 30.09 1019 10 16.09344 0.001 0.001
6:52 pm 18:52 Cloudy 37 2.8 30 -1.1 76 76 WNW 17 28 30.12 1020 10 16.09344 0 0
7:31 pm 19:31 Cloudy 36 2.2 29 -1.7 76 76 W 15 24 30.15 1021 10 16.09344 0 0
7:52 pm 19:52 Cloudy 36 2.2 29 -1.7 76 76 W 14 22 30.12 1020 10 16.09344 0 0
8:24 pm 20:24 Cloudy 36 2.2 28 -2.2 73 73 WNW 15 24 30.18 1022 10 16.09344 0 0
8:52 pm 20:52 Windy with Snow Likely 35 1.7 26 -3.3 70 70 WNW 23 37 30.15 1021 10 16.09344 0.001 0.001
9:13 pm 21:13 Cloudy 34 1.1 25 -3.9 70 70 WNW 15 24 30.21 1023 10 16.09344 0.001 0.001
9:52 pm 21:52 Cloudy with Light Snow 34 1.1 24 -4.4 67 67 W 12 19 30.18 1022 9 14.484096 0.001 0.001
10:52 pm 22:52 Mostly Cloudy 33 0.6 24 -4.4 70 70 W 16 26 30.18 1022 10 16.09344 0.001 0.001
11:52 pm 23:52 Partly Cloudy 32 0 22 -5.6 66 66 W 10 17 30.18 1022 10 16.09344 0 0

Powered by AerisWeather